Weather History for Mitchell, SD

Change the Weather History Date:

Monday, August 25, 2014

  Actual Average Record
Temperature  
Mean Temperature 65 °F 71 °F  
Max Temperature 76 °F 82 °F 108 °F (1973)
Min Temperature 53 °F 59 °F 41 °F (1964)
Degree Days  
Heating Degree Days 0 0  
Month to date heating degree days 0 0  
Since 1 June heating degree days 35 40  
Since 1 July heating degree days 9 5  
Cooling Degree Days 0 6  
Month to date cooling degree days 167 195  
Year to date cooling degree days 619 713  
Since 1 June cooling degree days 541 673  
Growing Degree Days 14 (Base 50)    
Moisture  
Dew Point 53 °F    
Average Humidity 68    
Maximum Humidity 86    
Minimum Humidity 49    
Precipitation  
Precipitation 0.00 in 0.06 in 1.65 in (1981)
Month to date precipitation 3.81 1.95  
Year to date precipitation 14.09 15.92  
Snow  
Snow 0.00 in - 0.00 in ()
Month to date snowfall 0.0  
Since 1 June snowfall 0.0  
Since 1 July snowfall 0.0  
Snow Depth 0.00 in    
Sea Level Pressure  
Sea Level Pressure 30.04 in    
Wind  
Wind Speed 8 mph (NW)    
Max Wind Speed 16 mph    
Max Gust Speed 20 mph    
Visibility 10 miles    
Events      
T = Trace of Precipitation, MM = Missing Value Source: NWS Daily Summary

Daily Weather History Graph

Daily Weather History Graph

Search for Another Location

Airport:

Trip Planner

Search our weather history database for the weather conditions in past years. The results will help you decide how hot, cold, wet, or windy it might be!

Date:

Astronomy

Aug. 25, 2014 Rise Set
Actual Time 6:47 AM CDT 8:19 PM CDT
Civil Twilight 6:17 AM CDT 8:49 PM CDT
Nautical Twilight 5:41 AM CDT 9:26 PM CDT
Astronomical Twilight 5:01 AM CDT 10:05 PM CDT
Moon 6:56 AM CDT 8:07 PM CDT
Length of Visible Light 14h 32m
Length of Day
13h 31m
New Moon, 0% of the Moon is Illuminated
Aug 25
New Moon
Sep 2
First Quarter
Sep 8
Full
Sep 15
Last Quarter
Sep 24
New

Hourly Weather History & Observations

Time (CDT) Temp. Dew Point Humidity Pressure Visibility Wind Dir Wind Speed Gust Speed Precip Events Conditions
12:53 AM 64.9 °F 57.9 °F 78% 29.91 in 10.0 mi NW 10.4 mph 23.0 mph N/A   Scattered Clouds
1:53 AM 60.1 °F 54.0 °F 80% 29.94 in 10.0 mi NW 9.2 mph - N/A   Clear
2:53 AM 57.9 °F 53.1 °F 84% 29.95 in 10.0 mi NNW 5.8 mph - N/A   Clear
4:53 AM 57.0 °F 50.0 °F 77% 29.98 in 10.0 mi WSW 3.5 mph - N/A   Clear
5:53 AM 55.0 °F 48.9 °F 80% 30.00 in 10.0 mi WNW 5.8 mph - N/A   Clear
6:53 AM 54.0 °F 48.9 °F 83% 30.03 in 10.0 mi West 6.9 mph - N/A   Clear
7:53 AM 55.9 °F 48.9 °F 77% 30.04 in 10.0 mi West 4.6 mph - N/A   Clear
9:53 AM 60.1 °F 51.1 °F 72% 30.07 in 10.0 mi WNW 10.4 mph - N/A   Clear
10:53 AM 62.1 °F 51.1 °F 67% 30.08 in 10.0 mi NW 11.5 mph - N/A   Clear
11:53 AM 66.9 °F 51.1 °F 57% 30.06 in 10.0 mi NW 12.7 mph - N/A   Clear
12:53 PM 69.1 °F 53.1 °F 57% 30.05 in 10.0 mi NNW 16.1 mph - N/A   Clear
1:53 PM 72.0 °F 54.0 °F 53% 30.06 in 10.0 mi NW 11.5 mph - N/A   Clear
2:53 PM 73.0 °F 54.0 °F 51% 30.04 in 10.0 mi NW 10.4 mph - N/A   Clear
3:53 PM 73.9 °F 55.0 °F 52% 30.03 in 10.0 mi NW 10.4 mph - N/A   Clear
4:53 PM 73.0 °F 55.9 °F 55% 30.04 in 10.0 mi NW 9.2 mph - N/A   Clear
5:53 PM 73.0 °F 57.0 °F 57% 30.06 in 10.0 mi NW 5.8 mph - N/A   Clear
6:53 PM 71.1 °F 57.0 °F 61% 30.05 in 10.0 mi NNW 6.9 mph - N/A   Clear
7:53 PM 66.9 °F 57.9 °F 73% 30.06 in 10.0 mi NW 4.6 mph - N/A   Scattered Clouds
10:53 PM 57.9 °F 53.1 °F 84% 30.15 in 10.0 mi North 5.8 mph - N/A   Clear
11:53 PM 55.9 °F 52.0 °F 87% 30.16 in 10.0 mi North 6.9 mph - N/A   Clear